Location: Amsterdam
(30.7274°N, 84.4357°W)
Time: 07:53:20
(UTC+00:00)

Explorer 11/Cluster Stage 4 - Pass Details

Date: 20 February 2026
Orbit: 463 x 1175 km, 28.8° (Epoch: 12 March)

Event Time Altitude Azimuth Distance (km) Brightness Sun altitude
Rises 17:16:23 0° 244° (WSW) 3,219 9.9 47.7°
Reaches altitude 10° 17:19:10 10° 238° (WSW) 2,165 9.2 47.8°
Maximum altitude 17:23:53 43° 167° (SSE) 853 10.0 48.0°
Drops below altitude 10° 17:27:50 10° 95° (E) 1,803 8.7 48.2°
Sets 17:29:58 0° 88° (E) 2,621 9.3 48.2°
